#timestamp,LO_Frequency,Hit,StdDev 
1610139615.6,286047001.1,N
1610139635.5,286047000.4,N
1610139655.3,286046999.4,N
1610139675.2,286046997.7,N
1610139695.9,286046995.3,N
1610139715.7,286046994.9,N
1610139735.6,286046997.2,N
1610139755.4,286046999.1,N
1610139775.3,286046997.2,N
1610139795.1,286047000.6,N
1610139796.0,286047000.6,N
1610139815.8,286046998.1,N
1610139835.7,286047001.2,N
1610139855.5,286046999.1,N
1610139875.3,286046998.8,N
1610139895.2,286047001.2,N
1610139915.0,286047000.5,N
1610139915.9,286047000.5,N
1610139935.8,286047001.9,N
1610139955.6,286047000.7,N
1610139975.4,286047001.0,N
1610139995.3,286046999.0,N
1610140015.1,286046998.3,N
1610140035.9,286046998.8,N
1610140055.7,286046998.1,N
1610140075.5,286047000.7,N
1610140095.4,286046999.5,N
1610140115.2,286046996.9,N
1610140135.0,286046998.3,N
1610140135.9,286046998.3,N
1610140155.8,286046999.3,N
1610140175.6,286046998.3,N
1610140195.5,286047000.5,N
1610140215.3,286047000.8,N
1610140235.1,286047001.0,N
1610140255.9,286047000.2,N
1610140275.7,286047001.2,N
1610140295.6,286047001.1,N
1610140315.4,286047001.2,N
1610140335.2,286047001.0,N
1610140355.1,286047001.0,N
1610140356.0,286047001.0,N
1610140375.8,286047000.8,N
1610140395.7,286047001.2,N
1610140415.5,286047000.5,N
1610140435.3,286047002.3,N
1610140455.2,286047000.1,N
1610140475.0,286047002.7,N
1610140475.9,286047002.7,N
1610140495.7,286047000.4,N
1610140515.6,286047002.0,N
1610140535.4,286046999.9,N
1610140555.3,286047004.3,Y
1610140575.1,286047001.4,P
1610140595.8,286047002.6,P
1610140615.7,286047001.8,N
1610140635.5,286047002.3,N
1610140655.4,286047000.1,N
1610140675.2,286046999.9,N
1610140695.0,286047000.1,N
1610140695.9,286047000.1,N
1610140715.8,286047002.4,N
1610140735.6,286046999.9,N
1610140755.4,286047001.8,N
1610140775.3,286047004.3,Y
1610140795.1,286047001.7,P
1610140815.9,286047000.6,N
1610140835.7,286047001.5,P
1610140855.5,286046999.7,N
1610140875.4,286047002.0,N
1610140895.2,286047000.9,N
1610140915.1,286046999.7,N
1610140916.0,286046999.7,N
1610140935.8,286047000.2,N
1610140955.6,286047001.0,N
1610140975.5,286046998.6,N
1610140995.3,286047001.1,N
1610141015.2,286046999.5,N
1610141035.9,286046996.5,Y
1610141055.7,286046998.7,P
1610141075.6,286046999.6,N
1610141095.4,286046998.6,N
1610141115.2,286046998.9,N
1610141135.1,286046996.5,Y
1610141136.0,286046996.5,P
1610141155.8,286046999.4,N
1610141175.7,286046999.0,N
1610141195.5,286046999.7,N
1610141215.3,286047002.7,N
1610141235.2,286047000.4,N
1610141255.0,286047002.8,N
1610141255.9,286047002.8,N
1610141275.8,286047000.1,N
1610141295.6,286047000.1,N
1610141315.4,286047001.7,N
1610141335.3,286047004.3,N
1610141355.1,286047002.7,N
1610141375.9,286047002.6,N
1610141395.7,286047002.5,N
1610141415.5,286047000.4,N
1610141435.4,286047001.2,N
1610141455.2,286047002.0,N
1610141475.0,286047001.5,N
1610141475.9,286047001.5,N
1610141495.8,286047002.7,N
1610141515.6,286047004.3,N
1610141535.5,286047001.1,N
1610141555.3,286046998.2,N
1610141575.1,286047002.2,N
1610141595.9,286047002.3,N
1610141615.7,286047002.9,N
1610141635.5,286047001.7,N
1610141655.4,286047002.4,N
1610141675.2,286047000.5,N
1610141695.1,286046998.5,N
1610141696.0,286046998.5,N
1610141715.8,286046998.1,N
1610141735.6,286047000.4,N
1610141755.5,286047001.9,N
1610141775.3,286047003.5,N
1610141795.2,286047003.6,N
1610141815.9,286047003.7,N
1610141835.7,286047006.0,Y
1610141855.6,286047003.7,P
1610141875.4,286047002.7,N
1610141895.3,286047000.9,N
1610141915.1,286046998.7,N
1610141916.0,286046998.7,N
1610141935.8,286046996.9,N
1610141955.7,286046997.7,N
1610141975.5,286046999.2,N
1610141995.3,286046999.6,N
1610142015.2,286046995.6,N
1610142035.0,286046997.8,N
1610142035.9,286046997.8,N
1610142055.8,286046999.3,N
1610142075.6,286046999.6,N
1610142095.4,286046996.5,N
1610142115.3,286046996.7,N
1610142135.1,286046999.1,N
1610142155.9,286046999.2,N
1610142175.7,286047004.2,N
1610142195.5,286047002.7,N
1610142215.4,286047002.8,N
1610142235.2,286047001.7,N
1610142255.0,286047000.5,N
1610142255.9,286047000.5,N
1610142275.8,286047001.2,N
1610142295.6,286046998.7,N
1610142315.5,286047000.9,N
1610142335.3,286047000.0,N
1610142355.1,286046999.3,N
1610142375.9,286046996.5,N
1610142395.7,286046999.3,N
1610142415.6,286046998.5,N
1610142435.4,286047000.7,N
1610142455.2,286047000.4,N
1610142475.1,286046998.3,N
1610142476.0,286046998.3,N
1610142495.8,286046998.2,N
1610142515.6,286046998.3,N
1610142535.5,286046998.9,N
1610142555.3,286046998.8,N
1610142575.2,286046998.7,N
1610142595.9,286046999.5,N
1610142615.7,286046997.1,N
1610142635.6,286046998.0,N
1610142655.4,286046997.0,N
1610142675.2,286046997.8,N
1610142695.1,286046995.3,N
1610142696.0,286046995.3,N
1610142715.8,286046999.4,N
1610142735.7,286047000.5,N
1610142755.5,286047000.4,N
1610142775.3,286047000.1,N
1610142795.2,286047002.5,N
1610142815.0,286047000.1,N
1610142815.9,286047000.1,N
1610142835.8,286047000.9,N
1610142855.6,286047002.0,N
1610142875.4,286047001.0,N
1610142895.3,286047000.8,N
1610142915.1,286046998.1,N
1610142935.8,286047000.6,N
1610142955.7,286046999.8,N
1610142975.5,286047004.0,N
1610142995.4,286047003.2,N
1610143015.2,286047004.0,N
1610143035.0,286047002.5,N
1610143035.9,286047002.5,N
1610143055.8,286046999.8,N
1610143075.6,286047004.4,N
1610143095.5,286047002.2,N
1610143115.3,286047000.1,N
1610143135.1,286046998.9,N
1610143155.9,286047000.3,N
1610143175.7,286046998.1,N
1610143195.5,286046998.6,N
